"FRM_AIS_EDR_2071.DAT           ",2005-08-25T15:09:16.08 ,"1/0073062550.62861",    0,    0,  219535,"AIS","B1","B1","B0","B0","PISd",0,0,0,0,"B1", 0,15,   0, 0,    0,"AIS","N/A    ","OK ","OK ",    001180.379,    -067.127,    0023.601,    0014.480,    0048.044
"FRM_AIS_EDR_2071.DAT           ",2005-08-25T15:09:23.62 ,"1/0073062558.32924",    0,    1,  219535,"AIS","B1","B1","B0","B0","PISd",0,0,0,0,"B1", 0,15,   0, 0,    0,"AIS","N/A    ","OK ","OK ",    001169.985,    -066.803,    0023.698,    0014.489,    0047.864
"FRM_AIS_EDR_2071.DAT           ",2005-08-25T15:09:31.16 ,"1/0073062566.02987",    0,    2,  219535,"AIS","B1","B1","B0","B0","PISd",0,0,0,0,"B1", 0,15,   0, 0,    0,"AIS","N/A    ","OK ","OK ",    001159.622,    -066.477,    0023.791,    0014.497,    0047.684
"FRM_AIS_EDR_2071.DAT           ",2005-08-25T15:09:38.71 ,"1/0073062573.38587",    0,    3,  219535,"AIS","B1","B1","B0","B0","PISd",0,0,0,0,"B1", 0,15,   0, 0,    0,"AIS","N/A    ","OK ","OK ",    001149.291,    -066.150,    0023.881,    0014.505,    0047.504
"FRM_AIS_EDR_2071.DAT           ",2005-08-25T15:09:46.25 ,"1/0073062581.08650",    0,    4,  219535,"AIS","B1","B1","B0","B0","PISd",0,0,0,0,"B1", 0,15,   0, 0,    0,"AIS","N/A    ","OK ","OK ",    001138.991,    -065.821,    0023.969,    0014.513,    0047.324
"FRM_AIS_EDR_2071.DAT           ",2005-08-25T15:09:53.79 ,"1/0073062588.44249",    0,    5,  219535,"AIS","B1","B1","B0","B0","PISd",0,0,0,0,"B1", 0,15,   0, 0,    0,"AIS","N/A    ","OK ","OK ",    001128.724,    -065.491,    0024.055,    0014.521,    0047.145
"FRM_AIS_EDR_2071.DAT           ",2005-08-25T15:10:01.34 ,"1/0073062596.14313",    0,    6,  219535,"AIS","B1","B1","B0","B0","PISd",0,0,0,0,"B1", 0,15,   0, 0,    0,"AIS","N/A    ","OK ","OK ",    001118.489,    -065.159,    0024.138,    0014.528,    0046.967
"FRM_AIS_EDR_2071.DAT           ",2005-08-25T15:10:08.88 ,"1/0073062603.49912",    0,    7,  219535,"AIS","B1","B1","B0","B0","PISd",0,0,0,0,"B1", 0,15,   0, 0,    0,"AIS","N/A    ","OK ","OK ",    001108.288,    -064.825,    0024.219,    0014.536,    0046.789
"FRM_AIS_EDR_2071.DAT           ",2005-08-25T15:10:16.42 ,"1/0073062611.19975",    0,    8,  219535,"AIS","B1","B1","B0","B0","PISd",0,0,0,0,"B1", 0,15,   0, 0,    0,"AIS","N/A    ","OK ","OK ",    001098.121,    -064.490,    0024.298,    0014.543,    0046.611
"FRM_AIS_EDR_2071.DAT           ",2005-08-25T15:10:23.97 ,"1/0073062618.55575",    0,    9,  219535,"AIS","B1","B1","B0","B0","PISd",0,0,0,0,"B1", 0,15,   0, 0,    0,"AIS","N/A    ","OK ","OK ",    001087.988,    -064.153,    0024.374,    0014.550,    0046.434
"FRM_AIS_EDR_2071.DAT           ",2005-08-25T15:10:31.51 ,"1/0073062626.25638",    0,   10,  219535,"AIS","B1","B1","B0","B0","PISd",0,0,0,0,"B1", 0,15,   0, 0,    0,"AIS","N/A    ","OK ","OK ",    001077.890,    -063.815,    0024.449,    0014.557,    0046.258
"FRM_AIS_EDR_2071.DAT           ",2005-08-25T15:10:39.05 ,"1/0073062633.61237",    0,   11,  219535,"AIS","B1","B1","B0","B0","PISd",0,0,0,0,"B1", 0,15,   0, 0,    0,"AIS","N/A    ","OK ","OK ",    001067.828,    -063.475,    0024.521,    0014.564,    0046.082
"FRM_AIS_EDR_2071.DAT           ",2005-08-25T15:10:46.60 ,"1/0073062641.31301",    0,   12,  219535,"AIS","B1","B1","B0","B0","PISd",0,0,0,0,"B1", 0,15,   0, 0,    0,"AIS","N/A    ","OK ","OK ",    001057.801,    -063.133,    0024.591,    0014.571,    0045.907
"FRM_AIS_EDR_2071.DAT           ",2005-08-25T15:10:54.14 ,"1/0073062649.01364",    0,   13,  219535,"AIS","B1","B1","B0","B0","PISd",0,0,0,0,"B1", 0,15,   0, 0,    0,"AIS","N/A    ","OK ","OK ",    001047.811,    -062.790,    0024.660,    0014.577,    0045.732
"FRM_AIS_EDR_2071.DAT           ",2005-08-25T15:11:01.68 ,"1/0073062656.36963",    0,   14,  219535,"AIS","B1","B1","B0","B0","PISd",0,0,0,0,"B1", 0,15,   0, 0,    0,"AIS","N/A    ","OK ","OK ",    001037.859,    -062.445,    0024.726,    0014.584,    0045.558
"FRM_AIS_EDR_2071.DAT           ",2005-08-25T15:11:09.22 ,"1/0073062664.07027",    0,   15,  219535,"AIS","B1","B1","B0","B0","PISd",0,0,0,0,"B1", 0,15,   0, 0,    0,"AIS","N/A    ","OK ","OK ",    001027.943,    -062.099,    0024.791,    0014.590,    0045.385
"FRM_AIS_EDR_2071.DAT           ",2005-08-25T15:11:16.77 ,"1/0073062671.42626",    0,   16,  219535,"AIS","B1","B1","B0","B0","PISd",0,0,0,0,"B1", 0,15,   0, 0,    0,"AIS","N/A    ","OK ","OK ",    001018.066,    -061.751,    0024.854,    0014.596,    0045.213
"FRM_AIS_EDR_2071.DAT           ",2005-08-25T15:11:24.31 ,"1/0073062679.12689",    0,   17,  219535,"AIS","B1","B1","B0","B0","PISd",0,0,0,0,"B1", 0,15,   0, 0,    0,"AIS","N/A    ","OK ","OK ",    001008.227,    -061.401,    0024.915,    0014.602,    0045.041
"FRM_AIS_EDR_2071.DAT           ",2005-08-25T15:11:31.85 ,"1/0073062686.48289",    0,   18,  219535,"AIS","B1","B1","B0","B0","PISd",0,0,0,0,"B1", 0,15,   0, 0,    0,"AIS","N/A    ","OK ","OK ",    000998.428,    -061.050,    0024.975,    0014.608,    0044.871
"FRM_AIS_EDR_2071.DAT           ",2005-08-25T15:11:39.40 ,"1/0073062694.18352",    0,   19,  219535,"AIS","B1","B1","B0","B0","PISd",0,0,0,0,"B1", 0,15,   0, 0,    0,"AIS","N/A    ","OK ","OK ",    000988.668,    -060.697,    0025.033,    0014.614,    0044.701
"FRM_AIS_EDR_2071.DAT           ",2005-08-25T15:11:46.94 ,"1/0073062701.53951",    0,   20,  219535,"AIS","B1","B1","B0","B0","PISd",0,0,0,0,"B1", 0,15,   0, 0,    0,"AIS","N/A    ","OK ","OK ",    000978.949,    -060.343,    0025.090,    0014.620,    0044.532
"FRM_AIS_EDR_2071.DAT           ",2005-08-25T15:11:54.48 ,"1/0073062709.24015",    0,   21,  219535,"AIS","B1","B1","B0","B0","PISd",0,0,0,0,"B1", 0,15,   0, 0,    0,"AIS","N/A    ","OK ","OK ",    000969.270,    -059.987,    0025.145,    0014.626,    0044.364
"FRM_AIS_EDR_2071.DAT           ",2005-08-25T15:12:02.03 ,"1/0073062716.59614",    0,   22,  219535,"AIS","B1","B1","B0","B0","PISd",0,0,0,0,"B1", 0,15,   0, 0,    0,"AIS","N/A    ","OK ","OK ",    000959.633,    -059.629,    0025.198,    0014.631,    0044.197
"FRM_AIS_EDR_2071.DAT           ",2005-08-25T15:12:09.57 ,"1/0073062724.29677",    0,   23,  219535,"AIS","B1","B1","B0","B0","PISd",0,0,0,0,"B1", 0,15,   0, 0,    0,"AIS","N/A    ","OK ","OK ",    000950.038,    -059.270,    0025.250,    0014.637,    0044.032
"FRM_AIS_EDR_2071.DAT           ",2005-08-25T15:12:17.11 ,"1/0073062731.65276",    0,   24,  219535,"AIS","B1","B1","B0","B0","PISd",0,0,0,0,"B1", 0,15,   0, 0,    0,"AIS","N/A    ","OK ","OK ",    000940.485,    -058.909,    0025.301,    0014.642,    0043.867
"FRM_AIS_EDR_2071.DAT           ",2005-08-25T15:12:24.66 ,"1/0073062739.35340",    0,   25,  219535,"AIS","B1","B1","B0","B0","PISd",0,0,0,0,"B1", 0,15,   0, 0,    0,"AIS","N/A    ","OK ","OK ",    000930.976,    -058.546,    0025.351,    0014.648,    0043.703
"FRM_AIS_EDR_2071.DAT           ",2005-08-25T15:12:32.20 ,"1/0073062747.05403",    0,   26,  219535,"AIS","B1","B1","B0","B0","PISd",0,0,0,0,"B1", 0,15,   0, 0,    0,"AIS","N/A    ","OK ","OK ",    000921.510,    -058.182,    0025.399,    0014.653,    0043.541
"FRM_AIS_EDR_2071.DAT           ",2005-08-25T15:12:39.74 ,"1/0073062754.41002",    0,   27,  219535,"AIS","B1","B1","B0","B0","PISd",0,0,0,0,"B1", 0,15,   0, 0,    0,"AIS","N/A    ","OK ","OK ",    000912.089,    -057.816,    0025.446,    0014.658,    0043.380
"FRM_AIS_EDR_2071.DAT           ",2005-08-25T15:12:47.29 ,"1/0073062762.11066",    0,   28,  219535,"AIS","B1","B1","B0","B0","PISd",0,0,0,0,"B1", 0,15,   0, 0,    0,"AIS","N/A    ","OK ","OK ",    000902.713,    -057.449,    0025.491,    0014.663,    0043.220
"FRM_AIS_EDR_2071.DAT           ",2005-08-25T15:12:54.83 ,"1/0073062769.46665",    0,   29,  219535,"AIS","B1","B1","B0","B0","PISd",0,0,0,0,"B1", 0,15,   0, 0,    0,"AIS","N/A    ","OK ","OK ",    000893.382,    -057.079,    0025.536,    0014.668,    0043.062
"FRM_AIS_EDR_2071.DAT           ",2005-08-25T15:13:02.37 ,"1/0073062777.16728",    0,   30,  219535,"AIS","B1","B1","B0","B0","PISd",0,0,0,0,"B1", 0,15,   0, 0,    0,"AIS","N/A    ","OK ","OK ",    000884.097,    -056.709,    0025.579,    0014.673,    0042.905
"FRM_AIS_EDR_2071.DAT           ",2005-08-25T15:13:09.92 ,"1/0073062784.52328",    0,   31,  219535,"AIS","B1","B1","B0","B0","PISd",0,0,0,0,"B1", 0,15,   0, 0,    0,"AIS","N/A    ","OK ","OK ",    000874.859,    -056.336,    0025.621,    0014.678,    0042.749
"FRM_AIS_EDR_2071.DAT           ",2005-08-25T15:13:17.46 ,"1/0073062792.22391",    0,   32,  219535,"AIS","B1","B1","B0","B0","PISd",0,0,0,0,"B1", 0,15,   0, 0,    0,"AIS","N/A    ","OK ","OK ",    000865.668,    -055.962,    0025.662,    0014.683,    0042.595
"FRM_AIS_EDR_2071.DAT           ",2005-08-25T15:13:25.00 ,"1/0073062799.57990",    0,   33,  219535,"AIS","B1","B1","B0","B0","PISd",0,0,0,0,"B1", 0,15,   0, 0,    0,"AIS","N/A    ","OK ","OK ",    000856.526,    -055.587,    0025.702,    0014.688,    0042.443
"FRM_AIS_EDR_2071.DAT           ",2005-08-25T15:13:32.55 ,"1/0073062807.28054",    0,   34,  219535,"AIS","B1","B1","B0","B0","PISd",0,0,0,0,"B1", 0,15,   0, 0,    0,"AIS","N/A    ","OK ","OK ",    000847.431,    -055.209,    0025.741,    0014.692,    0042.292
"FRM_AIS_EDR_2071.DAT           ",2005-08-25T15:13:40.09 ,"1/0073062814.63653",    0,   35,  219535,"AIS","B1","B1","B0","B0","PISd",0,0,0,0,"B1", 0,15,   0, 0,    0,"AIS","N/A    ","OK ","OK ",    000838.386,    -054.830,    0025.779,    0014.697,    0042.142
"FRM_AIS_EDR_2071.DAT           ",2005-08-25T15:13:47.63 ,"1/0073062822.33716",    0,   36,  219535,"AIS","B1","B1","B0","B0","PISd",0,0,0,0,"B1", 0,15,   0, 0,    0,"AIS","N/A    ","OK ","OK ",    000829.391,    -054.450,    0025.816,    0014.701,    0041.995
"FRM_AIS_EDR_2071.DAT           ",2005-08-25T15:13:55.18 ,"1/0073062830.03780",    0,   37,  219535,"AIS","B1","B1","B0","B0","PISd",0,0,0,0,"B1", 0,15,   0, 0,    0,"AIS","N/A    ","OK ","OK ",    000820.446,    -054.067,    0025.852,    0014.706,    0041.849
"FRM_AIS_EDR_2071.DAT           ",2005-08-25T15:14:02.72 ,"1/0073062837.39379",    0,   38,  219535,"AIS","B1","B1","B0","B0","PISd",0,0,0,0,"B1", 0,15,   0, 0,    0,"AIS","N/A    ","OK ","OK ",    000811.552,    -053.684,    0025.887,    0014.710,    0041.705
"FRM_AIS_EDR_2071.DAT           ",2005-08-25T15:14:10.26 ,"1/0073062845.09442",    0,   39,  219535,"AIS","B1","B1","B0","B0","PISd",0,0,0,0,"B1", 0,15,   0, 0,    0,"AIS","N/A    ","OK ","OK ",    000802.710,    -053.298,    0025.921,    0014.714,    0041.563
"FRM_AIS_EDR_2071.DAT           ",2005-08-25T15:14:17.80 ,"1/0073062852.45042",    0,   40,  219535,"AIS","B1","B1","B0","B0","PISd",0,0,0,0,"B1", 0,15,   0, 0,    0,"AIS","N/A    ","OK ","OK ",    000793.920,    -052.911,    0025.954,    0014.719,    0041.423
"FRM_AIS_EDR_2071.DAT           ",2005-08-25T15:14:25.35 ,"1/0073062860.15105",    0,   41,  219535,"AIS","B1","B1","B0","B0","PISd",0,0,0,0,"B1", 0,15,   0, 0,    0,"AIS","N/A    ","OK ","OK ",    000785.183,    -052.522,    0025.987,    0014.723,    0041.285
"FRM_AIS_EDR_2071.DAT           ",2005-08-25T15:14:32.89 ,"1/0073062867.50704",    0,   42,  219535,"AIS","B1","B1","B0","B0","PISd",0,0,0,0,"B1", 0,15,   0, 0,    0,"AIS","N/A    ","OK ","OK ",    000776.500,    -052.132,    0026.018,    0014.727,    0041.149
"FRM_AIS_EDR_2071.DAT           ",2005-08-25T15:14:40.43 ,"1/0073062875.20768",    0,   43,  219535,"AIS","B1","B1","B0","B0","PISd",0,0,0,0,"B1", 0,15,   0, 0,    0,"AIS","N/A    ","OK ","OK ",    000767.871,    -051.740,    0026.049,    0014.731,    0041.015
"FRM_AIS_EDR_2071.DAT           ",2005-08-25T15:14:47.98 ,"1/0073062882.56367",    0,   44,  219535,"AIS","B1","B1","B0","B0","PISd",0,0,0,0,"B1", 0,15,   0, 0,    0,"AIS","N/A    ","OK ","OK ",    000759.296,    -051.346,    0026.079,    0014.735,    0040.883
"FRM_AIS_EDR_2071.DAT           ",2005-08-25T15:14:55.52 ,"1/0073062890.26430",    0,   45,  219535,"AIS","B1","B1","B0","B0","PISd",0,0,0,0,"B1", 0,15,   0, 0,    0,"AIS","N/A    ","OK ","OK ",    000750.778,    -050.950,    0026.108,    0014.739,    0040.754
"FRM_AIS_EDR_2071.DAT           ",2005-08-25T15:15:03.06 ,"1/0073062897.62030",    0,   46,  219535,"AIS","B1","B1","B0","B0","PISd",0,0,0,0,"B1", 0,15,   0, 0,    0,"AIS","N/A    ","OK ","OK ",    000742.315,    -050.553,    0026.136,    0014.743,    0040.626
"FRM_AIS_EDR_2071.DAT           ",2005-08-25T15:15:10.61 ,"1/0073062905.32093",    0,   47,  219535,"AIS","B1","B1","B0","B0","PISd",0,0,0,0,"B1", 0,15,   0, 0,    0,"AIS","N/A    ","OK ","OK ",    000733.909,    -050.155,    0026.164,    0014.747,    0040.502
"FRM_AIS_EDR_2071.DAT           ",2005-08-25T15:15:18.15 ,"1/0073062913.02156",    0,   48,  219535,"AIS","B1","B1","B0","B0","PISd",0,0,0,0,"B1", 0,15,   0, 0,    0,"AIS","N/A    ","OK ","OK ",    000725.561,    -049.755,    0026.190,    0014.751,    0040.379
"FRM_AIS_EDR_2071.DAT           ",2005-08-25T15:15:25.69 ,"1/0073062920.37756",    0,   49,  219535,"AIS","B1","B1","B0","B0","PISd",0,0,0,0,"B1", 0,15,   0, 0,    0,"AIS","N/A    ","OK ","OK ",    000717.271,    -049.353,    0026.216,    0014.754,    0040.259
"FRM_AIS_EDR_2071.DAT           ",2005-08-25T15:15:33.24 ,"1/0073062928.07819",    0,   50,  219535,"AIS","B1","B1","B0","B0","PISd",0,0,0,0,"B1", 0,15,   0, 0,    0,"AIS","N/A    ","OK ","OK ",    000709.039,    -048.949,    0026.242,    0014.758,    0040.142
"FRM_AIS_EDR_2071.DAT           ",2005-08-25T15:15:40.78 ,"1/0073062935.43418",    0,   51,  219535,"AIS","B1","B1","B0","B0","PISd",0,0,0,0,"B1", 0,15,   0, 0,    0,"AIS","N/A    ","OK ","OK ",    000700.868,    -048.544,    0026.267,    0014.762,    0040.028
"FRM_AIS_EDR_2071.DAT           ",2005-08-25T15:15:48.32 ,"1/0073062943.13482",    0,   52,  219535,"AIS","B1","B1","B0","B0","PISd",0,0,0,0,"B1", 0,15,   0, 0,    0,"AIS","N/A    ","OK ","OK ",    000692.756,    -048.137,    0026.291,    0014.765,    0039.916
"FRM_AIS_EDR_2071.DAT           ",2005-08-25T15:15:55.87 ,"1/0073062950.49081",    0,   53,  219535,"AIS","B1","B1","B0","B0","PISd",0,0,0,0,"B1", 0,15,   0, 0,    0,"AIS","N/A    ","OK ","OK ",    000684.705,    -047.729,    0026.314,    0014.769,    0039.807
"FRM_AIS_EDR_2071.DAT           ",2005-08-25T15:16:03.41 ,"1/0073062958.19144",    0,   54,  219535,"AIS","B1","B1","B0","B0","PISd",0,0,0,0,"B1", 0,15,   0, 0,    0,"AIS","N/A    ","OK ","OK ",    000676.716,    -047.319,    0026.337,    0014.773,    0039.700
"FRM_AIS_EDR_2071.DAT           ",2005-08-25T15:16:10.95 ,"1/0073062965.54744",    0,   55,  219535,"AIS","B1","B1","B0","B0","PISd",0,0,0,0,"B1", 0,15,   0, 0,    0,"AIS","N/A    ","OK ","OK ",    000668.788,    -046.907,    0026.359,    0014.776,    0039.597
"FRM_AIS_EDR_2071.DAT           ",2005-08-25T15:16:18.50 ,"1/0073062973.24807",    0,   56,  219535,"AIS","B1","B1","B0","B0","PISd",0,0,0,0,"B1", 0,15,   0, 0,    0,"AIS","N/A    ","OK ","OK ",    000660.924,    -046.494,    0026.380,    0014.779,    0039.496
"FRM_AIS_EDR_2071.DAT           ",2005-08-25T15:16:26.04 ,"1/0073062980.60406",    0,   57,  219535,"AIS","B1","B1","B0","B0","PISd",0,0,0,0,"B1", 0,15,   0, 0,    0,"AIS","N/A    ","OK ","OK ",    000653.123,    -046.079,    0026.401,    0014.783,    0039.399
"FRM_AIS_EDR_2071.DAT           ",2005-08-25T15:16:33.58 ,"1/0073062988.30470",    0,   58,  219535,"AIS","B1","B1","B0","B0","PISd",0,0,0,0,"B1", 0,15,   0, 0,    0,"AIS","N/A    ","OK ","OK ",    000645.386,    -045.663,    0026.422,    0014.786,    0039.305
"FRM_AIS_EDR_2071.DAT           ",2005-08-25T15:16:41.13 ,"1/0073062996.00533",    0,   59,  219535,"AIS","B1","B1","B0","B0","PISd",0,0,0,0,"B1", 0,15,   0, 0,    0,"AIS","N/A    ","OK ","OK ",    000637.715,    -045.245,    0026.441,    0014.790,    0039.214
"FRM_AIS_EDR_2071.DAT           ",2005-08-25T15:16:48.67 ,"1/0073063003.36132",    0,   60,  219535,"AIS","B1","B1","B0","B0","PISd",0,0,0,0,"B1", 0,15,   0, 0,    0,"AIS","N/A    ","OK ","OK ",    000630.108,    -044.825,    0026.461,    0014.793,    0039.126
"FRM_AIS_EDR_2071.DAT           ",2005-08-25T15:16:56.21 ,"1/0073063011.06195",    0,   61,  219535,"AIS","B1","B1","B0","B0","PISd",0,0,0,0,"B1", 0,15,   0, 0,    0,"AIS","N/A    ","OK ","OK ",    000622.568,    -044.404,    0026.479,    0014.796,    0039.042
"FRM_AIS_EDR_2071.DAT           ",2005-08-25T15:17:03.76 ,"1/0073063018.41795",    0,   62,  219535,"AIS","B1","B1","B0","B0","PISd",0,0,0,0,"B1", 0,15,   0, 0,    0,"AIS","N/A    ","OK ","OK ",    000615.095,    -043.981,    0026.497,    0014.799,    0038.961
"FRM_AIS_EDR_2071.DAT           ",2005-08-25T15:17:11.30 ,"1/0073063026.11858",    0,   63,  219535,"AIS","B1","B1","B0","B0","PISd",0,0,0,0,"B1", 0,15,   0, 0,    0,"AIS","N/A    ","OK ","OK ",    000607.690,    -043.557,    0026.515,    0014.803,    0038.883
"FRM_AIS_EDR_2071.DAT           ",2005-08-25T15:17:18.84 ,"1/0073063033.47457",    0,   64,  219535,"AIS","B1","B1","B0","B0","PISd",0,0,0,0,"B1", 0,15,   0, 0,    0,"AIS","N/A    ","OK ","OK ",    000600.352,    -043.131,    0026.532,    0014.806,    0038.809
"FRM_AIS_EDR_2071.DAT           ",2005-08-25T15:17:26.39 ,"1/0073063041.17521",    0,   65,  219535,"AIS","B1","B1","B0","B0","PISd",0,0,0,0,"B1", 0,15,   0, 0,    0,"AIS","N/A    ","OK ","OK ",    000593.084,    -042.704,    0026.549,    0014.809,    0038.738
"FRM_AIS_EDR_2071.DAT           ",2005-08-25T15:17:33.93 ,"1/0073063048.53120",    0,   66,  219535,"AIS","B1","B1","B0","B0","PISd",0,0,0,0,"B1", 0,15,   0, 0,    0,"AIS","N/A    ","OK ","OK ",    000585.885,    -042.275,    0026.565,    0014.812,    0038.672
"FRM_AIS_EDR_2071.DAT           ",2005-08-25T15:17:41.47 ,"1/0073063056.23183",    0,   67,  219535,"AIS","B1","B1","B0","B0","PISd",0,0,0,0,"B1", 0,15,   0, 0,    0,"AIS","N/A    ","OK ","OK ",    000578.757,    -041.844,    0026.581,    0014.815,    0038.609
"FRM_AIS_EDR_2071.DAT           ",2005-08-25T15:17:49.01 ,"1/0073063063.58783",    0,   68,  219535,"AIS","B1","B1","B0","B0","PISd",0,0,0,0,"B1", 0,15,   0, 0,    0,"AIS","N/A    ","OK ","OK ",    000571.700,    -041.412,    0026.596,    0014.818,    0038.549
"FRM_AIS_EDR_2071.DAT           ",2005-08-25T15:17:56.56 ,"1/0073063071.28846",    0,   69,  219535,"AIS","B1","B1","B0","B0","PISd",0,0,0,0,"B1", 0,15,   0, 0,    0,"AIS","N/A    ","OK ","OK ",    000564.714,    -040.979,    0026.611,    0014.821,    0038.494
"FRM_AIS_EDR_2071.DAT           ",2005-08-25T15:18:04.10 ,"1/0073063078.64445",    0,   70,  219535,"AIS","B1","B1","B0","B0","PISd",0,0,0,0,"B1", 0,15,   0, 0,    0,"AIS","N/A    ","OK ","OK ",    000557.801,    -040.544,    0026.625,    0014.824,    0038.442
"FRM_AIS_EDR_2071.DAT           ",2005-08-25T15:18:11.64 ,"1/0073063086.34509",    0,   71,  219535,"AIS","B1","B1","B0","B0","PISd",0,0,0,0,"B1", 0,15,   0, 0,    0,"AIS","N/A    ","OK ","OK ",    000550.960,    -040.107,    0026.639,    0014.827,    0038.395
"FRM_AIS_EDR_2071.DAT           ",2005-08-25T15:18:19.19 ,"1/0073063094.04572",    0,   72,  219535,"AIS","B1","B1","B0","B0","PISd",0,0,0,0,"B1", 0,15,   0, 0,    0,"AIS","N/A    ","OK ","OK ",    000544.194,    -039.669,    0026.652,    0014.830,    0038.351
"FRM_AIS_EDR_2071.DAT           ",2005-08-25T15:18:26.73 ,"1/0073063101.40171",    0,   73,  219535,"AIS","B1","B1","B0","B0","PISd",0,0,0,0,"B1", 0,15,   0, 0,    0,"AIS","N/A    ","OK ","OK ",    000537.502,    -039.229,    0026.665,    0014.833,    0038.312
"FRM_AIS_EDR_2071.DAT           ",2005-08-25T15:18:34.27 ,"1/0073063109.10235",    0,   74,  219535,"AIS","B1","B1","B0","B0","PISd",0,0,0,0,"B1", 0,15,   0, 0,    0,"AIS","N/A    ","OK ","OK ",    000530.885,    -038.788,    0026.678,    0014.836,    0038.277
"FRM_AIS_EDR_2071.DAT           ",2005-08-25T15:18:41.82 ,"1/0073063116.45834",    0,   75,  219535,"AIS","B1","B1","B0","B0","PISd",0,0,0,0,"B1", 0,15,   0, 0,    0,"AIS","N/A    ","OK ","OK ",    000524.343,    -038.346,    0026.690,    0014.839,    0038.246
"FRM_AIS_EDR_2071.DAT           ",2005-08-25T15:18:49.36 ,"1/0073063124.15897",    0,   76,  219535,"AIS","B1","B1","B0","B0","PISd",0,0,0,0,"B1", 0,15,   0, 0,    0,"AIS","N/A    ","OK ","OK ",    000517.879,    -037.902,    0026.702,    0014.842,    0038.219
"FRM_AIS_EDR_2071.DAT           ",2005-08-25T15:18:56.90 ,"1/0073063131.51497",    0,   77,  219535,"AIS","B1","B1","B0","B0","PISd",0,0,0,0,"B1", 0,15,   0, 0,    0,"AIS","N/A    ","OK ","OK ",    000511.491,    -037.456,    0026.714,    0014.844,    0038.197
"FRM_AIS_EDR_2071.DAT           ",2005-08-25T15:19:04.45 ,"1/0073063139.21560",    0,   78,  219535,"AIS","B1","B1","B0","B0","PISd",0,0,0,0,"B1", 0,15,   0, 0,    0,"AIS","N/A    ","OK ","OK ",    000505.181,    -037.010,    0026.725,    0014.847,    0038.179
"FRM_AIS_EDR_2071.DAT           ",2005-08-25T15:19:11.99 ,"1/0073063146.57159",    0,   79,  219535,"AIS","B1","B1","B0","B0","PISd",0,0,0,0,"B1", 0,15,   0, 0,    0,"AIS","N/A    ","OK ","OK ",    000498.950,    -036.561,    0026.736,    0014.850,    0038.165
"FRM_AIS_EDR_2071.DAT           ",2005-08-25T15:19:19.53 ,"1/0073063154.27223",    0,   80,  219535,"AIS","B1","B1","B0","B0","PISd",0,0,0,0,"B1", 0,15,   0, 0,    0,"AIS","N/A    ","OK ","OK ",    000492.797,    -036.111,    0026.746,    0014.853,    0038.156
"FRM_AIS_EDR_2071.DAT           ",2005-08-25T15:19:27.08 ,"1/0073063161.62822",    0,   81,  219535,"AIS","B1","B1","B0","B0","PISd",0,0,0,0,"B1", 0,15,   0, 0,    0,"AIS","N/A    ","OK ","OK ",    000486.725,    -035.660,    0026.756,    0014.856,    0038.151
"FRM_AIS_EDR_2071.DAT           ",2005-08-25T15:19:34.62 ,"1/0073063169.32885",    0,   82,  219535,"AIS","B1","B1","B0","B0","PISd",0,0,0,0,"B1", 0,15,   0, 0,    0,"AIS","N/A    ","OK ","OK ",    000480.732,    -035.208,    0026.766,    0014.858,    0038.151
"FRM_AIS_EDR_2071.DAT           ",2005-08-25T15:19:42.16 ,"1/0073063177.02949",    0,   83,  219535,"AIS","B1","B1","B0","B0","PISd",0,0,0,0,"B1", 0,15,   0, 0,    0,"AIS","N/A    ","OK ","OK ",    000474.821,    -034.754,    0026.776,    0014.861,    0038.156
"FRM_AIS_EDR_2071.DAT           ",2005-08-25T15:19:49.71 ,"1/0073063184.38548",    0,   84,  219535,"AIS","B1","B1","B0","B0","PISd",0,0,0,0,"B1", 0,15,   0, 0,    0,"AIS","N/A    ","OK ","OK ",    000468.992,    -034.299,    0026.785,    0014.864,    0038.166
"FRM_AIS_EDR_2071.DAT           ",2005-08-25T15:19:57.25 ,"1/0073063192.08611",    0,   85,  219535,"AIS","B1","B1","B0","B0","PISd",0,0,0,0,"B1", 0,15,   0, 0,    0,"AIS","N/A    ","OK ","OK ",    000463.245,    -033.842,    0026.794,    0014.866,    0038.180
"FRM_AIS_EDR_2071.DAT           ",2005-08-25T15:20:04.79 ,"1/0073063199.44211",    0,   86,  219535,"AIS","B1","B1","B0","B0","PISd",0,0,0,0,"B1", 0,15,   0, 0,    0,"AIS","N/A    ","OK ","OK ",    000457.581,    -033.384,    0026.802,    0014.869,    0038.198
"FRM_AIS_EDR_2071.DAT           ",2005-08-25T15:20:12.34 ,"1/0073063207.14274",    0,   87,  219535,"AIS","B1","B1","B0","B0","PISd",0,0,0,0,"B1", 0,15,   0, 0,    0,"AIS","N/A    ","OK ","OK ",    000452.001,    -032.925,    0026.810,    0014.871,    0038.222
"FRM_AIS_EDR_2071.DAT           ",2005-08-25T15:20:19.88 ,"1/0073063214.49873",    0,   88,  219535,"AIS","B1","B1","B0","B0","PISd",0,0,0,0,"B1", 0,15,   0, 0,    0,"AIS","N/A    ","OK ","OK ",    000446.505,    -032.464,    0026.818,    0014.874,    0038.251
"FRM_AIS_EDR_2071.DAT           ",2005-08-25T15:20:27.42 ,"1/0073063222.19937",    0,   89,  219535,"AIS","B1","B1","B0","B0","PISd",0,0,0,0,"B1", 0,15,   0, 0,    0,"AIS","N/A    ","OK ","OK ",    000441.094,    -032.002,    0026.826,    0014.876,    0038.284
"FRM_AIS_EDR_2071.DAT           ",2005-08-25T15:20:34.97 ,"1/0073063229.55536",    0,   90,  219535,"AIS","B1","B1","B0","B0","PISd",0,0,0,0,"B1", 0,15,   0, 0,    0,"AIS","N/A    ","OK ","OK ",    000435.769,    -031.539,    0026.833,    0014.879,    0038.322